Regional Weather Roundup
Issued by NWS

Home | Current Version | Previous Version | Text Only | Print | Product List | Glossary On
Versions: 1 2 3 4 5 6 7 8 9 10 11 12 13 14 15 16 17 18 19 20 21 22 23 24 25 26 27
000
ASUS45 KSLC 221310
RWRUT

UTAH REGIONAL WEATHER ROUNDUP
NATIONAL WEATHER SERVICE SALT LAKE CITY UT
700 AM MDT SUN OCT 22 2017

UTZ001>011-023>025-221400-

NORTHERN UTAH

CITY           SKY/WX    TMP DP  RH WIND       PRES   REMARKS
BRIGHAM CITY   CLOUDY    49  17  27 CALM      30.35S
HILL AFB       CLOUDY    48  15  26 S10       30.35S
LOGAN          CLOUDY    42  29  59 CALM      30.33S
OGDEN          CLOUDY    49  18  29 SE10      30.34S
SALT LAKE CITY CLOUDY    49  25  39 SE6       30.37R
TOOELE VALLEY  MOCLDY    37  25  60 SE8       30.37R WCI  31
WENDOVER       MOCLDY    37  22  54 CALM      30.34F
WEST JORDAN    MOCLDY    44  21  40 SW8       30.39R

$$

UTZ011>015-024>027-221400-

CENTRAL/NORTHEAST UTAH

CITY           SKY/WX    TMP DP  RH WIND       PRES   REMARKS
PROVO AIRPORT  PTCLDY    37  25  61 SE3       30.40S
MOAB/CANYONLAN CLEAR     35  13  40 CALM      30.37
DELTA          MOCLDY    32  18  55 E3        30.40S
PRICE          CLEAR     33  15  47 N9        30.39R WCI  25
RICHFIELD      CLEAR     25  19  80 CALM      30.45R
ROOSEVELT      CLOUDY    30  19  64 CALM      30.40R
VERNAL         CLOUDY    31  17  56 CALM      30.37R

$$

UTZ013>016-019>022-027-221400-

SOUTHERN UTAH

CITY           SKY/WX    TMP DP  RH WIND       PRES   REMARKS
BRYCE CANYON   PTCLDY    24  12  60 W3        30.45S
CEDAR CITY     PTCLDY    28  17  63 SW5       30.39R WCI  23
MILFORD        PTCLDY    28  10  46 SW7       30.40R WCI  21
ST GEORGE      MOSUNNY   48  12  23 E5        30.35R
HANKSVILLE     CLEAR     30  14  51 E6        30.40R WCI  24
KANAB          CLEAR     34  14  44 N5        30.42R WCI  30
BLANDING         N/A     32   8  36 N5        30.46S WCI  27

$$

REGIONAL REPORTS     COLORADO/ARIZONA

CITY           SKY/WX    TMP DP  RH WIND       PRES   REMARKS
CRAIG, CO      CLOUDY    27  22  81 CALM      30.39R
GRAND JUNCTION CLOUDY    33  16  49 E9        30.40R WCI  25
RIFLE, CO      CLOUDY    27  23  85 CALM      30.45R
MONTROSE, CO   CLOUDY    28  17  63 S7        30.44S WCI  21
CORTEZ, CO     CLOUDY    25  11  55 NE7       30.40R WCI  17
COLORADO CITY    N/A     32  16  51 SE3       30.41R
PAGE, AZ       PTCLDY    44  16  32 CALM      30.36R
GRAND CANYON   MOCLDY    26   7  44 NE5       30.42S WCI  20
KINGMAN, AZ    CLEAR     47  13  25 E5        30.29R
FLAGSTAFF, AZ  PTCLDY    26  10  50 CALM      30.42R

$$

REGIONAL REPORTS    NEVADA/IDAHO/WYOMING

CITY           SKY/WX    TMP DP  RH WIND       PRES   REMARKS
LAS VEGAS, NV  CLEAR     56  18  22 SW7       30.27R
ELY, NY        PTCLDY    30  19  63 S10       30.43R WCI  21
ELKO, NV       MOCLDY    29  24  82 SW3       30.37R
POCATELLO, ID  CLOUDY    50  34  54 S14       30.26R
BURLEY, ID     CLEAR     46  35  65 S18G28    30.24S
FORT BRIDGER,  PTSUNNY   40  25  54 W22G30    30.35S WCI  31
EVANSTON, WY   CLOUDY    38  20  48 SW14      30.37R WCI  30
ROCK SPRINGS,  CLOUDY    37  20  50 SW16      30.30S WCI  28
KEMMERER, WY   CLOUDY    32  21  64 SW3       30.33S

$$




USA.gov is the U.S. government's official web portal to all federal, state and local government web resources and services.